[[{"header":{"parameterUnit":"m.s-1","parameterCategory":2,"la1":30.2992,"la2":30.254,"lo1":-89.0895,"lo2":-89.0443,"dy":0.0025,"dx":0.0025,"nx":19,"ny":19,"refTime":"2026-03-17T09:00:00:Z","depth":"0","parameterNumber":2,"parameterNumberName":"U-component_of_CURRENTS"},"data":[0,0,0,-0.1637,-0.1638,-0.1655,-0.1655,-0.1652,-0.1652,0,0,0,0,0,0,0,0,0,0,0,-0.1626,-0.1626,-0.1637,-0.1638,-0.1655,-0.1655,-0.1652,-0.1652,0,0,0,0,0,0,0,0,0,0,0,-0.1625,-0.1626,-0.1626,-0.1638,-0.1655,-0.1655,-0.1652,-0.1643,0,0,0,0,0,0,0,0,0,0,-0.1629,-0.161,-0.1626,-0.1626,-0.1638,-0.1655,-0.1655,-0.1643,-0.1643,-0.164,0,-0.1646,0,-0.1655,-0.1652,-0.1652,0,0,0,-0.1629,-0.1609,-0.1632,-0.1626,-0.1638,-0.1655,-0.1644,-0.1643,-0.1644,-0.1641,-0.1646,-0.1646,-0.1655,-0.1652,-0.1652,-0.1668,-0.1668,0,0,-0.1628,-0.161,-0.1631,-0.1632,-0.1647,-0.1644,-0.1645,-0.1644,-0.1635,-0.1646,-0.1646,-0.1655,-0.1652,-0.1652,-0.1668,-0.1668,0,0,0,-0.1631,-0.1609,-0.1631,-0.1632,-0.1641,-0.1645,-0.1646,-0.1635,-0.1648,-0.1646,-0.1655,-0.1652,-0.1652,-0.1668,-0.1668,-0.1679,0,0,0,-0.163,-0.1612,-0.1631,-0.1618,-0.1641,-0.1638,-0.1637,-0.1647,-0.1648,-0.1655,-0.1652,-0.1652,-0.1668,-0.1668,-0.1679,-0.1679,0,0,0,-0.1624,-0.1611,-0.1619,-0.1618,-0.1632,-0.1639,-0.165,-0.1648,-0.1653,-0.1652,-0.1652,-0.1667,-0.1668,-0.1678,-0.1678,-0.1675,0,0,0,-0.1598,-0.1607,-0.1618,-0.1633,-0.1632,-0.1667,-0.165,-0.1663,-0.1665,-0.1652,-0.1668,-0.1668,-0.1678,-0.1678,-0.1675,-0.1537,-0.1528,0,0,-0.16,-0.1607,-0.162,-0.1631,-0.1664,-0.1663,-0.1684,-0.1676,-0.1668,-0.1664,-0.1665,-0.1679,-0.1678,-0.1675,-0.1561,-0.155,0,0,0,-0.1615,-0.162,-0.1634,-0.1653,-0.1683,-0.1694,-0.1695,-0.1692,-0.1685,-0.1673,-0.1684,-0.1683,-0.1681,-0.1597,-0.1589,-0.1477,-0.167,-0.167,-0.167,-0.157,-0.1607,-0.1625,-0.1667,-0.1689,-0.1713,-0.1717,-0.171,-0.1705,-0.1704,-0.1696,-0.1707,-0.1618,-0.1611,-0.1498,-0.1703,-0.1703,-0.1703,-0.1703,-0.1563,-0.1569,-0.1614,-0.1645,-0.1678,-0.1695,-0.1723,-0.1721,-0.1719,-0.1713,-0.171,-0.1618,-0.1602,-0.1485,-0.1704,-0.1704,-0.1704,-0.1704,-0.1704,-0.152,-0.1528,-0.1557,-0.1596,-0.163,-0.1675,-0.1693,-0.1719,-0.172,-0.1723,-0.1622,-0.162,-0.1512,-0.1721,-0.1721,-0.1721,-0.1721,-0.1721,-0.1721,-0.1452,-0.1487,-0.1492,-0.1544,-0.1563,-0.1608,-0.1672,-0.168,-0.165,-0.1619,-0.1618,-0.1489,-0.1712,-0.1706,-0.1721,-0.1721,-0.1721,-0.1721,-0.1721,-0.1383,-0.1399,-0.1404,-0.142,-0.1471,-0.1456,-0.1559,-0.1528,-0.1549,-0.1497,-0.1341,-0.1556,-0.1536,-0.154,-0.1529,-0.1498,-0.1498,-0.1498,-0.1498,-0.1313,-0.1331,-0.1305,-0.131,-0.1334,-0.1377,-0.1289,-0.127,-0.121,-0.1132,-0.119,-0.1137,-0.1152,-0.1108,-0.1122,-0.1102,-0.0963,-0.0963,-0.0962,-0.1248,-0.1259,-0.1202,-0.1224,-0.1251,-0.1251,-0.1098,-0.0952,-0.0892,-0.0936,-0.1065,-0.1087,-0.1011,-0.1042,-0.0975,-0.1004,-0.0974,0,0]},{"header":{"parameterUnit":"m.s-1","parameterCategory":2,"la1":30.2992,"la2":30.254,"lo1":-89.0895,"lo2":-89.0443,"dy":0.0025,"dx":0.0025,"nx":19,"ny":19,"refTime":"2026-03-17T09:00:00:Z","depth":"0","parameterNumber":3,"parameterNumberName":"V-component_of_CURRENTS"},"data":[0,0,0,-0.0173,-0.0172,-0.0146,-0.0145,-0.0096,-0.0095,0,0,0,0,0,0,0,0,0,0,0,-0.0183,-0.0183,-0.0173,-0.0172,-0.0146,-0.0145,-0.0096,-0.0095,0,0,0,0,0,0,0,0,0,0,0,-0.0183,-0.0183,-0.0182,-0.0172,-0.0146,-0.0145,-0.0096,-0.0119,0,0,0,0,0,0,0,0,0,0,-0.0146,-0.0165,-0.0183,-0.0182,-0.0172,-0.0146,-0.0145,-0.012,-0.0117,-0.0105,0,-0.0105,0,-0.01,-0.0092,-0.0092,0,0,0,-0.0167,-0.0167,-0.0155,-0.0182,-0.0172,-0.0146,-0.0156,-0.0119,-0.0116,-0.0102,-0.0104,-0.0103,-0.01,-0.0092,-0.0092,-0.0054,-0.0053,0,0,-0.0169,-0.018,-0.0157,-0.0153,-0.017,-0.0157,-0.0155,-0.0117,-0.0118,-0.0104,-0.0101,-0.0099,-0.0092,-0.0091,-0.0054,-0.0054,0,0,0,-0.0176,-0.0181,-0.0171,-0.0155,-0.0153,-0.0156,-0.0154,-0.012,-0.0115,-0.0101,-0.0098,-0.0091,-0.0091,-0.0054,-0.0054,-0.0108,0,0,0,-0.0177,-0.0186,-0.0171,-0.0178,-0.0154,-0.0139,-0.0158,-0.0118,-0.0113,-0.0098,-0.0091,-0.009,-0.0054,-0.0054,-0.0107,-0.0131,0,0,0,-0.0183,-0.0187,-0.0184,-0.0179,-0.0169,-0.014,-0.0133,-0.0117,-0.0112,-0.0092,-0.009,-0.0054,-0.0054,-0.0106,-0.0129,-0.0112,0,0,0,-0.0194,-0.0214,-0.0184,-0.0206,-0.0169,-0.0168,-0.0133,-0.0127,-0.0115,-0.0091,-0.0054,-0.0054,-0.0106,-0.0127,-0.0111,-0.0038,-0.0037,0,0,-0.0229,-0.0218,-0.0232,-0.0205,-0.0222,-0.0171,-0.0176,-0.0142,-0.0105,-0.0064,-0.0064,-0.0108,-0.0129,-0.0112,-0.003,-0.0029,0,0,0,-0.025,-0.0261,-0.0261,-0.0262,-0.0242,-0.0222,-0.0181,-0.0152,-0.0114,-0.0097,-0.0089,-0.01,-0.0088,-0.0042,-0.004,0.0093,-0.0053,-0.0053,-0.0053,-0.0314,-0.0303,-0.0329,-0.0313,-0.0303,-0.0253,-0.0229,-0.0176,-0.0141,-0.0126,-0.0132,-0.0138,-0.009,-0.0088,0.0048,-0.0115,-0.0115,-0.0115,-0.0116,-0.0381,-0.0399,-0.0379,-0.0399,-0.0359,-0.0348,-0.0274,-0.0237,-0.0179,-0.0156,-0.0141,-0.0085,-0.009,0.0055,-0.0119,-0.0118,-0.0118,-0.0118,-0.0117,-0.0428,-0.0436,-0.0441,-0.0461,-0.0454,-0.0406,-0.0382,-0.0314,-0.0231,-0.0218,-0.0126,-0.0124,-0.0005,-0.02,-0.02,-0.02,-0.02,-0.02,-0.02,-0.0474,-0.048,-0.0517,-0.0526,-0.0537,-0.0525,-0.0441,-0.0382,-0.025,-0.017,-0.0169,0.0021,-0.0163,-0.017,-0.0201,-0.0201,-0.02,-0.02,-0.02,-0.0534,-0.0532,-0.0593,-0.0615,-0.0639,-0.0619,-0.0536,-0.0348,-0.0264,-0.0171,0.0073,-0.0125,-0.0092,-0.0091,-0.0095,-0.0104,-0.0104,-0.0104,-0.0104,-0.0569,-0.0575,-0.0651,-0.0698,-0.0728,-0.0665,-0.0512,-0.0281,0.0019,0.0174,0.0187,0.0233,0.0223,0.0277,0.027,0.0275,0.036,0.0361,0.0361,-0.0605,-0.0627,-0.0682,-0.0726,-0.0764,-0.069,-0.0489,-0.0104,0.03,0.0391,0.0357,0.0337,0.0414,0.0388,0.0479,0.0458,0.0468,0,0]}],[{"header":{"parameterUnit":"m.s-1","parameterCategory":2,"la1":30.2992,"la2":30.254,"lo1":-89.0895,"lo2":-89.0443,"dy":0.0025,"dx":0.0025,"nx":19,"ny":19,"refTime":"2026-03-17T09:00:00:Z","depth":"2","parameterNumber":2,"parameterNumberName":"U-component_of_CURRENTS"},"data":[0,0,0,-0.15,-0.15,-0.1528,-0.1528,-0.1539,-0.1539,0,0,0,0,0,0,0,0,0,0,0,-0.1486,-0.1486,-0.1499,-0.15,-0.1528,-0.1528,-0.1539,-0.1539,0,0,0,0,0,0,0,0,0,0,0,-0.1486,-0.1486,-0.1486,-0.15,-0.1528,-0.1528,-0.1539,-0.1523,0,0,0,0,0,0,0,0,0,0,-0.1499,-0.1483,-0.1486,-0.1486,-0.1501,-0.1528,-0.1528,-0.1523,-0.1524,-0.1521,0,-0.1527,0,-0.1537,-0.154,-0.154,0,0,0,-0.1496,-0.1481,-0.1499,-0.1486,-0.1501,-0.1528,-0.1514,-0.1524,-0.1525,-0.1523,-0.1527,-0.1528,-0.1537,-0.154,-0.154,-0.1563,-0.1564,0,0,-0.1494,-0.148,-0.1498,-0.15,-0.151,-0.1513,-0.1515,-0.1525,-0.152,-0.1527,-0.1528,-0.1537,-0.154,-0.154,-0.1563,-0.1563,0,0,0,-0.1493,-0.1479,-0.1497,-0.1499,-0.1509,-0.1514,-0.1516,-0.152,-0.1529,-0.1529,-0.1538,-0.154,-0.154,-0.1563,-0.1563,-0.1576,0,0,0,-0.1492,-0.1479,-0.1496,-0.1486,-0.1509,-0.1516,-0.1511,-0.1528,-0.153,-0.1537,-0.154,-0.154,-0.1563,-0.1563,-0.1575,-0.1575,0,0,0,-0.1484,-0.1478,-0.1484,-0.1486,-0.1502,-0.1516,-0.1525,-0.1529,-0.1535,-0.154,-0.154,-0.1563,-0.1563,-0.1574,-0.1574,-0.1573,0,0,0,-0.1465,-0.1475,-0.1483,-0.1501,-0.1502,-0.1539,-0.1525,-0.1546,-0.1552,-0.154,-0.1563,-0.1563,-0.1574,-0.1574,-0.1572,-0.1433,-0.1424,0,0,-0.147,-0.1475,-0.1489,-0.1498,-0.1532,-0.1534,-0.1561,-0.1562,-0.1556,-0.1556,-0.1557,-0.1575,-0.1574,-0.1573,-0.1459,-0.1448,0,0,0,-0.1487,-0.1491,-0.1506,-0.1525,-0.1555,-0.157,-0.1578,-0.1578,-0.1578,-0.1563,-0.1581,-0.158,-0.1578,-0.1493,-0.1486,-0.1565,-0.1565,-0.1565,-0.1565,-0.1452,-0.1485,-0.1505,-0.1542,-0.1566,-0.1595,-0.1603,-0.1601,-0.1599,-0.16,-0.1594,-0.1607,-0.1517,-0.151,-0.1602,-0.1602,-0.1602,-0.1602,-0.1602,-0.1448,-0.1454,-0.1497,-0.1527,-0.156,-0.1583,-0.1613,-0.1615,-0.1617,-0.1612,-0.161,-0.1516,-0.1501,-0.1603,-0.1603,-0.1603,-0.1603,-0.1603,-0.1602,-0.1409,-0.1416,-0.1445,-0.1484,-0.152,-0.1566,-0.1586,-0.1615,-0.162,-0.1624,-0.1523,-0.1521,-0.1605,-0.1623,-0.1623,-0.1623,-0.1623,-0.1623,-0.1623,-0.1346,-0.138,-0.1387,-0.1438,-0.1458,-0.1503,-0.1568,-0.1576,-0.1548,-0.152,-0.1519,-0.1614,-0.1613,-0.1606,-0.1623,-0.1623,-0.1623,-0.1623,-0.1623,-0.128,-0.1298,-0.1305,-0.1322,-0.1374,-0.1355,-0.1456,-0.1422,-0.1446,-0.1394,-0.1454,-0.1458,-0.1437,-0.1441,-0.143,-0.14,-0.14,-0.14,-0.14,-0.1216,-0.1234,-0.1214,-0.1221,-0.1244,-0.1279,-0.1183,-0.1153,-0.1191,-0.1185,-0.1195,-0.1154,-0.1167,-0.113,-0.1141,-0.1124,-0.1015,-0.1014,-0.1013,-0.1157,-0.1168,-0.1118,-0.1141,-0.1166,-0.1154,-0.0988,-0.0818,-0.0839,-0.1002,-0.1166,-0.1366,-0.133,-0.1341,-0.1305,-0.1315,-0.1295,0,0]},{"header":{"parameterUnit":"m.s-1","parameterCategory":2,"la1":30.2992,"la2":30.254,"lo1":-89.0895,"lo2":-89.0443,"dy":0.0025,"dx":0.0025,"nx":19,"ny":19,"refTime":"2026-03-17T09:00:00:Z","depth":"2","parameterNumber":3,"parameterNumberName":"V-component_of_CURRENTS"},"data":[0,0,0,-0.0254,-0.0254,-0.0232,-0.0232,-0.0186,-0.0186,0,0,0,0,0,0,0,0,0,0,0,-0.0262,-0.0262,-0.0254,-0.0254,-0.0232,-0.0232,-0.0186,-0.0186,0,0,0,0,0,0,0,0,0,0,0,-0.0262,-0.0262,-0.0262,-0.0254,-0.0232,-0.0232,-0.0186,-0.0206,0,0,0,0,0,0,0,0,0,0,-0.0229,-0.0245,-0.0262,-0.0262,-0.0254,-0.0232,-0.0232,-0.0207,-0.0205,-0.0193,0,-0.0194,0,-0.019,-0.0183,-0.0183,0,0,0,-0.0249,-0.0247,-0.0238,-0.0262,-0.0254,-0.0232,-0.024,-0.0206,-0.0203,-0.019,-0.0193,-0.0191,-0.019,-0.0182,-0.0182,-0.0147,-0.0147,0,0,-0.025,-0.0259,-0.024,-0.0236,-0.0253,-0.0241,-0.024,-0.0204,-0.0205,-0.0193,-0.019,-0.0189,-0.0182,-0.0182,-0.0147,-0.0147,0,0,0,-0.0257,-0.026,-0.0252,-0.0238,-0.0236,-0.0241,-0.0239,-0.0206,-0.0203,-0.019,-0.0188,-0.0182,-0.0181,-0.0147,-0.0147,-0.0197,0,0,0,-0.0257,-0.0264,-0.0253,-0.0258,-0.0237,-0.0225,-0.0242,-0.0206,-0.0202,-0.0189,-0.0182,-0.0181,-0.0147,-0.0147,-0.0195,-0.0217,0,0,0,-0.0262,-0.0265,-0.0263,-0.0258,-0.0251,-0.0225,-0.022,-0.0205,-0.0201,-0.0183,-0.0181,-0.0147,-0.0147,-0.0194,-0.0215,-0.0198,0,0,0,-0.027,-0.0289,-0.0263,-0.0284,-0.0251,-0.0252,-0.022,-0.0215,-0.0204,-0.0182,-0.0147,-0.0147,-0.0194,-0.0213,-0.0198,-0.0151,-0.0151,0,0,-0.0303,-0.0293,-0.0306,-0.0283,-0.03,-0.0254,-0.0259,-0.0228,-0.0194,-0.0156,-0.0156,-0.0196,-0.0215,-0.0198,-0.0143,-0.0143,0,0,0,-0.0323,-0.0334,-0.0334,-0.0336,-0.0319,-0.0301,-0.0264,-0.0237,-0.0202,-0.0187,-0.0179,-0.0188,-0.0177,-0.0147,-0.0147,-0.0146,-0.0146,-0.0146,-0.0146,-0.0381,-0.0372,-0.0396,-0.0383,-0.0374,-0.0329,-0.0307,-0.0258,-0.0226,-0.0212,-0.0217,-0.0222,-0.0191,-0.019,-0.0202,-0.0202,-0.0202,-0.0202,-0.0202,-0.0444,-0.0461,-0.0442,-0.0461,-0.0426,-0.0416,-0.0347,-0.0313,-0.0259,-0.0238,-0.0224,-0.0186,-0.0193,-0.0206,-0.0205,-0.0205,-0.0204,-0.0204,-0.0204,-0.0488,-0.0496,-0.0501,-0.052,-0.0513,-0.0469,-0.0447,-0.0383,-0.0306,-0.0294,-0.0223,-0.0221,-0.0248,-0.0277,-0.0277,-0.0277,-0.0277,-0.0277,-0.0277,-0.0533,-0.0538,-0.0572,-0.0581,-0.0591,-0.058,-0.0503,-0.0451,-0.0335,-0.0265,-0.0263,-0.0247,-0.0244,-0.0251,-0.0278,-0.0278,-0.0278,-0.0277,-0.0277,-0.0591,-0.0589,-0.0645,-0.0666,-0.0688,-0.0673,-0.0597,-0.0438,-0.0362,-0.0284,-0.0231,-0.0232,-0.0203,-0.0202,-0.0206,-0.022,-0.022,-0.022,-0.022,-0.0627,-0.0631,-0.0702,-0.0746,-0.0774,-0.0718,-0.0598,-0.0406,-0.0245,-0.017,-0.0172,-0.0155,-0.0158,-0.0126,-0.0127,-0.0129,-0.0123,-0.0122,-0.0122,-0.0663,-0.0682,-0.0734,-0.0774,-0.081,-0.0748,-0.0587,-0.0283,-0.0072,-0.012,-0.0174,-0.0209,-0.019,-0.0193,-0.0147,-0.0146,-0.015,0,0]}],[{"header":{"parameterUnit":"m.s-1","parameterCategory":2,"la1":30.2992,"la2":30.254,"lo1":-89.0895,"lo2":-89.0443,"dy":0.0025,"dx":0.0025,"nx":19,"ny":19,"refTime":"2026-03-17T09:00:00:Z","depth":"4","parameterNumber":2,"parameterNumberName":"U-component_of_CURRENTS"},"data":[0,0,0,-0.116,-0.1162,-0.1252,-0.1252,-0.1311,-0.1312,0,0,0,0,0,0,0,0,0,0,0,-0.1132,-0.1133,-0.116,-0.1162,-0.1252,-0.1252,-0.1311,-0.1312,0,0,0,0,0,0,0,0,0,0,0,-0.1132,-0.1132,-0.1133,-0.1163,-0.1251,-0.1252,-0.1311,-0.1258,0,0,0,0,0,0,0,0,0,0,-0.1178,-0.1161,-0.1132,-0.1133,-0.1163,-0.1251,-0.1252,-0.1256,-0.1261,-0.1254,0,-0.1273,0,-0.1291,-0.1314,-0.1314,0,0,0,-0.1164,-0.1157,-0.1178,-0.1133,-0.1164,-0.1251,-0.1212,-0.1259,-0.1265,-0.1261,-0.1274,-0.1277,-0.1292,-0.1314,-0.1314,-0.1364,-0.1365,0,0,-0.1159,-0.1149,-0.1174,-0.1182,-0.1192,-0.1209,-0.1215,-0.1263,-0.1272,-0.1274,-0.1278,-0.1293,-0.1315,-0.1315,-0.1364,-0.1364,0,0,0,-0.1144,-0.1146,-0.1167,-0.1179,-0.1198,-0.1212,-0.1218,-0.127,-0.1277,-0.1279,-0.1293,-0.1315,-0.1315,-0.1364,-0.1364,-0.1381,0,0,0,-0.1141,-0.1136,-0.1165,-0.116,-0.1198,-0.1243,-0.1223,-0.1273,-0.128,-0.1293,-0.1315,-0.1316,-0.1364,-0.1364,-0.138,-0.1378,0,0,0,-0.1127,-0.1135,-0.1146,-0.1159,-0.1197,-0.1243,-0.1253,-0.1276,-0.1288,-0.1314,-0.1316,-0.1363,-0.1364,-0.1379,-0.1377,-0.1378,0,0,0,-0.1111,-0.1129,-0.1146,-0.1176,-0.1196,-0.1252,-0.1254,-0.1302,-0.1328,-0.1315,-0.1364,-0.1364,-0.1378,-0.1376,-0.1378,-0.119,0,0,0,-0.112,-0.113,-0.1148,-0.1166,-0.1213,-0.124,-0.129,-0.1325,-0.1332,-0.1343,-0.1345,-0.138,-0.1377,-0.1378,-0.123,0,0,0,0,-0.1143,-0.1153,-0.1173,-0.1207,-0.125,-0.129,-0.133,-0.1343,-0.1373,-0.135,-0.1388,-0.1386,-0.1386,-0.1275,-0.1367,-0.1367,-0.1367,-0.1367,-0.1367,-0.1122,-0.1154,-0.1186,-0.123,-0.127,-0.133,-0.1358,-0.1381,-0.139,-0.1407,-0.1406,-0.1426,-0.1311,-0.1418,-0.1418,-0.1418,-0.1418,-0.1418,-0.1418,-0.112,-0.113,-0.1187,-0.1231,-0.1284,-0.1332,-0.1384,-0.1401,-0.1426,-0.1428,-0.1428,-0.1309,-0.142,-0.1419,-0.1419,-0.1419,-0.1419,-0.1419,-0.1419,-0.1083,-0.1092,-0.1139,-0.1201,-0.1265,-0.1332,-0.1362,-0.1412,-0.1434,-0.1443,-0.1322,-0.1433,-0.1423,-0.1448,-0.1448,-0.1448,-0.1448,-0.1448,-0.1448,-0.1016,-0.1063,-0.1093,-0.1169,-0.121,-0.1272,-0.1355,-0.1362,-0.1405,-0.1314,-0.1449,-0.1436,-0.1435,-0.1425,-0.1448,-0.1448,-0.1448,-0.1448,-0.1448,-0.0948,-0.0983,-0.1013,-0.1054,-0.1135,-0.1164,-0.1276,-0.1245,-0.1237,-0.1184,-0.1238,-0.1249,-0.1221,-0.1225,-0.1207,-0.1167,-0.1164,-0.1162,0,-0.089,-0.0913,-0.0937,-0.0966,-0.099,-0.1086,-0.1031,-0.1062,-0.1086,-0.1046,-0.1242,-0.1306,-0.1311,-0.1284,-0.1283,-0.1263,0,0,0,-0.0839,-0.0858,-0.0842,-0.0889,-0.091,-0.0924,-0.1005,-0.0957,-0.1095,-0.102,-0.1103,-0.1119,-0.1331,-0.1449,-0.1431,-0.143,-0.1413,0,0]},{"header":{"parameterUnit":"m.s-1","parameterCategory":2,"la1":30.2992,"la2":30.254,"lo1":-89.0895,"lo2":-89.0443,"dy":0.0025,"dx":0.0025,"nx":19,"ny":19,"refTime":"2026-03-17T09:00:00:Z","depth":"4","parameterNumber":3,"parameterNumberName":"V-component_of_CURRENTS"},"data":[0,0,0,-0.022,-0.022,-0.0215,-0.0215,-0.0182,-0.0182,0,0,0,0,0,0,0,0,0,0,0,-0.0222,-0.0222,-0.022,-0.022,-0.0215,-0.0215,-0.0182,-0.0182,0,0,0,0,0,0,0,0,0,0,0,-0.0222,-0.0222,-0.0222,-0.022,-0.0215,-0.0215,-0.0182,-0.0191,0,0,0,0,0,0,0,0,0,0,-0.0199,-0.0209,-0.0222,-0.0222,-0.022,-0.0215,-0.0215,-0.0192,-0.0191,-0.0178,0,-0.0182,0,-0.0183,-0.0179,-0.0179,0,0,0,-0.0215,-0.021,-0.0207,-0.0222,-0.022,-0.0215,-0.0216,-0.0191,-0.019,-0.0177,-0.0182,-0.0181,-0.0182,-0.0179,-0.0179,-0.0151,-0.0151,0,0,-0.0215,-0.022,-0.0208,-0.0206,-0.0224,-0.0216,-0.0216,-0.0191,-0.0192,-0.0182,-0.018,-0.0182,-0.0179,-0.0179,-0.0151,-0.0151,0,0,0,-0.0219,-0.0221,-0.0218,-0.0207,-0.021,-0.0216,-0.0216,-0.0193,-0.0192,-0.018,-0.0181,-0.0179,-0.0178,-0.0151,-0.0151,-0.0194,0,0,0,-0.0219,-0.0223,-0.0219,-0.0222,-0.0211,-0.0206,-0.0219,-0.0194,-0.0191,-0.0182,-0.0179,-0.0178,-0.0151,-0.0151,-0.0193,-0.0211,0,0,0,-0.0221,-0.0224,-0.0224,-0.0222,-0.0222,-0.0206,-0.0204,-0.0193,-0.0192,-0.0179,-0.0178,-0.0151,-0.0151,-0.0192,-0.0209,-0.0195,0,0,0,-0.0224,-0.0241,-0.0225,-0.0244,-0.0222,-0.0229,-0.0204,-0.0205,-0.0197,-0.0178,-0.0151,-0.0151,-0.0192,-0.0208,-0.0194,-0.0191,0,0,0,-0.0249,-0.0244,-0.0256,-0.0241,-0.0261,-0.0229,-0.0237,-0.0215,-0.0188,-0.0157,-0.0156,-0.0193,-0.0209,-0.0195,-0.0184,0,0,0,0,-0.0266,-0.0277,-0.0279,-0.0286,-0.0278,-0.0269,-0.0244,-0.0224,-0.0197,-0.0184,-0.0179,-0.0187,-0.0177,-0.0172,-0.015,-0.0151,-0.0151,-0.0151,-0.0151,-0.031,-0.0306,-0.0329,-0.0325,-0.0323,-0.0294,-0.0279,-0.0242,-0.0217,-0.0207,-0.0211,-0.0216,-0.0213,-0.0199,-0.0199,-0.0199,-0.0199,-0.0199,-0.02,-0.0358,-0.0373,-0.0366,-0.0388,-0.0368,-0.0366,-0.0314,-0.0289,-0.0246,-0.023,-0.0218,-0.0205,-0.0203,-0.0203,-0.0202,-0.0202,-0.0201,-0.0201,-0.0201,-0.0389,-0.0395,-0.0409,-0.0436,-0.0441,-0.0413,-0.0398,-0.0349,-0.0286,-0.0276,-0.0242,-0.0232,-0.0238,-0.0263,-0.0263,-0.0263,-0.0263,-0.0263,-0.0263,-0.0414,-0.0426,-0.0464,-0.0485,-0.0504,-0.0502,-0.0447,-0.0405,-0.0335,-0.0282,-0.0281,-0.0237,-0.0235,-0.024,-0.0264,-0.0264,-0.0264,-0.0264,-0.0264,-0.0449,-0.0457,-0.0514,-0.0543,-0.0578,-0.0569,-0.0525,-0.0412,-0.0361,-0.0297,-0.0271,-0.027,-0.0247,-0.0245,-0.025,-0.0277,-0.0277,-0.0277,0,-0.0471,-0.0479,-0.0553,-0.0602,-0.0627,-0.0603,-0.0531,-0.0461,-0.0358,-0.0355,-0.037,-0.0347,-0.0343,-0.0325,-0.0322,-0.0332,0,0,0,-0.0494,-0.0515,-0.0567,-0.0614,-0.0645,-0.0559,-0.0508,-0.0462,-0.0377,-0.0307,-0.0278,-0.0278,-0.0303,-0.0265,-0.0228,-0.0226,-0.0232,0,0]}]]